Regional Weather Roundup
Issued by NWS

Home | Current Version | Previous Version | Graphics & Text | Print | Product List | Glossary On
Versions: 1 2 3 4 5 6 7 8 9 10 11 12 13 14 15 16 17 18 19 20 21 22 23 24 25 26 27 28 29 30 31 32 33 34 35 36 37 38 39 40 41 42 43 44 45 46 47 48 49 50
000
ASUS43 KLOT 250603
RWRIL

ILLINOIS REGIONAL WEATHER ROUNDUP
NATIONAL WEATHER SERVICE CHICAGO/ROMEOVILLE IL
100 AM CDT SUN SEP 25 2016

NOTE: "FAIR" INDICATES FEW OR NO CLOUDS BELOW 12,000 FEET WITH NO
SIGNIFICANT WEATHER AND/OR OBSTRUCTIONS TO VISIBILITY.

* THESE STATIONS ARE NOT UNDER NWS QUALITY CONTROL. THEY ALSO MAY NOT
  REPORT WEATHER SUCH AS PRECIPITATION OR FOG.

ILZ001-002-007-009-015-016-024-250700-
NORTHWEST ILLINOIS

CITY           SKY/WX    TMP DP  RH WIND       PRES   REMARKS
MOLINE         CLEAR     69  65  86 E7        30.05S
6HR MIN TEMP:  69; 6HR MAX TEMP:  75;

STERLING*      CLEAR     65  63  93 E7        30.08F
$$

ILZ003-004-008-010-011-017-018-250700-
NORTH CENTRAL ILLINOIS

CITY           SKY/WX    TMP DP  RH WIND       PRES   REMARKS
ROCKFORD       PTCLDY    65  62  90 SE3       30.12S
6HR MIN TEMP:  65; 6HR MAX TEMP:  71;

FREEPORT*      CLEAR     62  61  97 E6        30.12F FOG
ROCHELLE*      CLEAR     64  63  96 E5        30.11F
$$

ILZ005-006-012>014-019>023-250700-
NORTHEAST ILLINOIS

CITY           SKY/WX    TMP DP  RH WIND       PRES   REMARKS
CHICAGO-OHARE  CLEAR     68  63  84 E7        30.12S
6HR MIN TEMP:  68; 6HR MAX TEMP:  70;

CHICAGO-MIDWAY CLEAR     70  62  76 SE8       30.12S
6HR MIN TEMP:  70; 6HR MAX TEMP:  73;

AURORA         CLEAR     66  63  90 E3        30.12S
6HR MIN TEMP:  65; 6HR MAX TEMP:  72;

LANSING*       CLEAR     67  63  86 SE7       30.13F
JOLIET*        CLEAR     69  65  86 SE6       30.12R
WAUKEGAN       CLEAR     68  63  84 SE8       30.12F
6HR MIN TEMP:  65; 6HR MAX TEMP:  68;

DUPAGE AIRPORT CLEAR     67  62  84 SE5       30.11F
6HR MIN TEMP:  64; 6HR MAX TEMP:  70;

KANKAKEE*      PTCLDY    67  65  91 E7        30.12S
WHEELING       CLEAR     67  63  87 E5        30.13F
6HR MIN TEMP:  67; 6HR MAX TEMP:  68;

MORRIS*        MOCLDY    67  65  91 E5        30.10S
ROMEOVILLE*    CLEAR     67  66  95 SE7       30.12S
NORTHERLY ISL    N/A     68  63  84 SE8         N/A
$$

LMZ740>746-250700-
SOUTHERN LAKE MICHIGAN

STATION/POSITION SKY/WX   TEMP    WIND        PRES    VSBY  WAVE
                          AIR SEA DIR/SP/G                  HT/PER
                          (F)     (DEG/KT/KT) (MB)    (MI)  (FT/S)
SOUTHERN BUOY              69 72  110/ 17/ 19 1020.2          3/ 4
WILMETTE HARBOR            69 65  130/ 12/ 16   N/A           3/ 4
HARRISON CRIB              71     130/ 14/ 16   N/A
BURNHAM HARBOR             68     140/  8/  9   N/A
CALUMET HARBOR             69     110/  7/  9 1019.8F
BURNS HARBOR               69     140/ 11/ 16 1021.0S
MICHIGAN CITY              67     110/  8/ 11   N/A
MICHIGAN CITY 6N           67 70  130/  6/  8   N/A           1/ 3
ST. JOSEPH                 65 69  100/ 10/ 14 1021.0S         1
$$

ILZ025>027-034>036-040-047-049-050-058-095>099-250700-
WEST-CENTRAL ILLINOIS

CITY           SKY/WX    TMP DP  RH WIND       PRES   REMARKS
QUINCY         CLEAR     72  66  81 SE8       30.04F
GALESBURG*     CLEAR    N/A N/A N/A E5        30.06S
MACOMB*        CLEAR     65  64  96 CALM      30.07F FOG
JACKSONVILLE*  CLEAR     74  67  76 SE6       30.05F
PITTSFIELD*    CLEAR     70  67  91 SE3       30.07R
$$

ILZ028>032-037-038-041>044-048-051>054-059>061-250700-
CENTRAL ILLINOIS

CITY           SKY/WX    TMP DP  RH WIND       PRES   REMARKS
PONTIAC        CLEAR     70  68  94 SE7       30.11R
BLOOMINGTON    CLEAR     70  67  90 SE9       30.11R
DECATUR        CLEAR     69  65  86 SE5       30.09F
PEORIA         CLEAR     73  68  84 SE7       30.08R
6HR MIN TEMP:  73; 6HR MAX TEMP:  78;

LACON*         CLEAR     68  64  88 CALM      30.08R
SPRINGFIELD    CLEAR     73  65  75 E8        30.07S
6HR MIN TEMP:  69; 6HR MAX TEMP:  82;

TAYLORVILLE    CLEAR     69  64  86 SE7       30.08S
6HR MIN TEMP:  69; 6HR MAX TEMP:  78;

$$

ILZ033-039-045-046-055>057-062-063-250700-
EAST-CENTRAL ILLINOIS

CITY           SKY/WX    TMP DP  RH WIND       PRES   REMARKS
CHAMPAIGN      CLEAR     68  66  93 E7        30.10F
RANTOUL*         N/A     70  67  92 E3        30.11S FOG
MATTOON        CLEAR     70  66  87 SE6       30.09F
PARIS*         CLEAR     68  67  96 CALM      30.12S
$$

ILZ079-100>102-250700-
SOUTHWEST ILLINOIS

CITY           SKY/WX    TMP DP  RH WIND       PRES   REMARKS
ALTON          CLEAR     67  67  98 E3        30.07S FOG
BELLEVILLE     CLEAR     69  69 100 CALM      30.06R
CAHOKIA*       CLEAR     70  66  87 CALM      30.05S
SPARTA*        CLEAR     71  69  91 CALM      30.08S
$$

ILZ064>066-069>071-074>076-080>082-084>086-088>090-092>094-250700-
SOUTH-CENTRAL ILLINOIS

CITY           SKY/WX    TMP DP  RH WIND       PRES   REMARKS
CARBONDALE     CLOUDY    70  70 100 CALM      30.07S FOG
6HR MIN TEMP:  68; 6HR MAX TEMP:  77;

EFFINGHAM*     CLEAR     68  68 100 E5        30.10F
MARION         MOCLDY    72  70  94 CALM      30.08S
MT. VERNON     CLEAR     66  61  82 CALM      30.09S
CENTRALIA*     CLEAR     67  67  99 CALM      30.07S FOG
SALEM*         CLEAR     72  68  86 CALM      30.08S
METROPOLIS*    CLEAR     69  69  98 CALM      30.08S FOG
$$

ILZ067-068-072-073-078-083-087-091-250700-
SOUTHEAST ILLINOIS

CITY           SKY/WX    TMP DP  RH WIND       PRES   REMARKS
LAWRENCEVILLE  CLEAR     69  66  90 NE5       30.11R
FLORA*         CLEAR     69  66  91 CALM      30.09S
FAIRFIELD*       N/A     70  67  90 CALM      30.08S
HARRISBURG*    CLEAR     69  68  96 CALM      30.08R
ROBINSON*      CLEAR     63  63  99 CALM      30.11S FOG
CARMI*         CLEAR     67  67 100 CALM      30.08R FOG
$$

ABBREVIATIONS USED IN REMARKS
   TC - TEMPERATURE IN CELSIUS
  WCI - WIND CHILL INDEX
   HX - HEAT INDEX
  VSB - VISIBILITY
$$





USA.gov is the U.S. government's official web portal to all federal, state and local government web resources and services.